Regional Weather Roundup
Issued by NWS

Home | Current Version | Previous Version | Text Only | Print | Product List | Glossary Off
Versions: 1 2 3 4 5 6 7 8 9 10 11 12 13 14 15 16 17 18 19 20 21 22 23 24 25 26 27 28 29 30 31 32 33 34 35 36 37 38 39 40 41 42 43 44 45 46 47 48 49 50

000
ASUS43 KLOT 311010
RWRIL

ILLINOIS REGIONAL WEATHER ROUNDUP
NATIONAL WEATHER SERVICE CHICAGO/ROMEOVILLE IL
500 AM CDT SUN AUG 31 2014

NOTE: "FAIR" INDICATES FEW OR NO CLOUDS BELOW 12,000 FEET WITH NO
SIGNIFICANT WEATHER AND/OR OBSTRUCTIONS TO VISIBILITY.

* THESE STATIONS ARE NOT UNDER NWS QUALITY CONTROL. THEY ALSO MAY NOT
  REPORT WEATHER SUCH AS PRECIPITATION OR FOG.

ILZ001-002-007-009-015-016-024-311100-
NORTHWEST ILLINOIS

CITY           SKY/WX    TMP DP  RH WIND       PRES   REMARKS
MOLINE         MOCLDY    62  61  96 CALM      29.92R FOG
STERLING*      CLEAR     63  59  88 CALM      29.93S
SAVANNA*       FOG       62  61  95 E3        29.92S VSB 1/4
$$

ILZ003-004-008-010-011-017-018-311100-
NORTH CENTRAL ILLINOIS

CITY           SKY/WX    TMP DP  RH WIND       PRES   REMARKS
ROCKFORD       PTCLDY    63  61  93 CALM      29.95R
FREEPORT*      CLEAR     60  59  97 S3        29.96R FOG
ROCHELLE*      CLEAR     62  61  96 CALM      29.94R
DE KALB*       MOCLDY    64  62  95 CALM      29.95R
PERU*          CLOUDY    68  67  97 CALM      29.94R FOG
$$

ILZ005-006-012>014-019>023-311100-
NORTHEAST ILLINOIS

CITY           SKY/WX    TMP DP  RH WIND       PRES   REMARKS
CHICAGO-OHARE  MOCLDY    71  66  84 SW5       29.93R
CHICAGO-MIDWAY MOCLDY    71  67  87 SW5       29.92S
AURORA         FOG       66  64  93 CALM      29.94R VSB 1/4
LANSING*         N/A    N/A N/A N/A MISG        N/A
JOLIET*        FOG       65  64  94 CALM      29.94S VSB 1/2
WAUKEGAN       CLEAR     67  64  90 VRB3      29.92R
DUPAGE AIRPORT CLOUDY    69  67  93 S3        29.93R FOG
KANKAKEE*      PTCLDY    68  67  98 S3        29.94S FOG
WHEELING       CLOUDY    70  66  87 CALM      29.94R
MORRIS*        PTCLDY    67  67 100 CALM      29.94R FOG
ROMEOVILLE*    MOCLDY    66  66 100 S3        29.94R
NORTHERLY ISL    N/A     71  66  84 SW5         N/A
$$

LMZ740>746-311100-
SOUTHERN LAKE MICHIGAN

STATION/POSITION SKY/WX   TEMP    WIND        PRES    VSBY  WAVE
                          AIR SEA DIR/SP/G                  HT/PER
                          (F)     (DEG/KT/KT) (MB)    (MI)  (FT/S)
SOUTHERN BUOY              70 69  230/  6/  8 1012.9R         1
WAUKEGAN HARBOR            69     260/  7/  9   N/A
HARRISON CRIB              71     210/ 13/ 14   N/A
BURNHAM HARBOR             71     250/  5/  7   N/A
CALUMET HARBOR             69     200/  6/  7 1012.4R
MICHIGAN CITY              67     170/  5/  7   N/A
MICHIGAN CITY 6N           69 72  200/  6/  8   N/A           1/ 3
ST. JOSEPH                 69 71  190/ 10/ 12   N/A           2/ 3
$$

ILZ025>027-034>036-040-047-049-050-058-095>099-311100-
WEST-CENTRAL ILLINOIS

CITY           SKY/WX    TMP DP  RH WIND       PRES   REMARKS
QUINCY         CLEAR     69  67  93 S5        29.92S
GALESBURG*       N/A     61  60  97 CALM      29.93R FOG
MACOMB*        FOG       63  63 100 CALM      29.95R VSB 1
JACKSONVILLE*  CLEAR     73  71  95 S5        29.94R
PITTSFIELD*    CLEAR     70  67  91 S3        29.94R
$$

ILZ028>032-037-038-041>044-048-051>054-059>061-311100-
CENTRAL ILLINOIS

CITY           SKY/WX    TMP DP  RH WIND       PRES   REMARKS
PONTIAC        CLOUDY    73  73 100 CALM      29.93S FOG
DECATUR        CLOUDY    73  70  90 SW10      29.95S
PEORIA         CLOUDY    71  67  87 CALM      29.93R
LACON*         CLEAR     68  66  93 CALM      29.92S
LINCOLN*       CLOUDY    73  71  94 S3        29.91R FOG
SPRINGFIELD    CLEAR     72  70  93 SW5       29.94R
TAYLORVILLE    PTCLDY    70  68  94 S8        29.95R
$$

ILZ033-039-045-046-055>057-062-063-311100-
EAST-CENTRAL ILLINOIS

CITY           SKY/WX    TMP DP  RH WIND       PRES   REMARKS
CHAMPAIGN      CLOUDY    72  71  97 S8        29.96R
DANVILLE*      LGT RAIN  71  70  98 SW5       29.94R
RANTOUL*       CLOUDY    74  70  88 SW6       29.96S
MATTOON        CLOUDY    73  70  90 SW7       29.96R
PARIS*         CLOUDY    72  71  96 S5        29.98R
$$

ILZ079-100>102-311100-
SOUTHWEST ILLINOIS

CITY           SKY/WX    TMP DP  RH WIND       PRES   REMARKS
BELLEVILLE     CLEAR     71  71 100 E1        29.94S
CAHOKIA*       CLEAR     71  70  96 S5        29.94S
SPARTA*        CLEAR     71  70  96 S5        29.97S
$$

ILZ064>066-069>071-074>076-080>082-084>086-088>090-092>094-311100-
SOUTH-CENTRAL ILLINOIS

CITY           SKY/WX    TMP DP  RH WIND       PRES   REMARKS
CARBONDALE     CLOUDY    71  69  93 CALM      29.97S
CAIRO*         CLOUDY    74  71  88 S3        29.98S
EFFINGHAM*     CLOUDY    73  69  87 S5        29.97R
MARION         CLOUDY    73  72  94 S7        29.98S
MT. VERNON     CLOUDY    72  68  88 SW6       29.98S
CENTRALIA*     CLOUDY    72  70  94 S7        29.97R
SALEM*         CLOUDY    74  73  94 S8        29.97R
METROPOLIS*    CLOUDY    73  73 100 S3        29.99R
$$

ILZ067-068-072-073-078-083-087-091-311100-
SOUTHEAST ILLINOIS

CITY           SKY/WX    TMP DP  RH WIND       PRES   REMARKS
LAWRENCEVILLE  CLOUDY    72  71  97 S8        29.99R FOG
FLORA*         CLOUDY    72  71  96 S8        29.98R
FAIRFIELD*     CLOUDY    73  72  94 S5        29.98R FOG
HARRISBURG*    CLOUDY    73  73 100 S5        30.00R
ROBINSON*      CLOUDY    73  72  97 S5        29.99R
CARMI*         CLOUDY    73  72  99 CALM      29.99R FOG
$$

ABBREVIATIONS USED IN REMARKS
   TC - TEMPERATURE IN CELSIUS
  WCI - WIND CHILL INDEX
   HX - HEAT INDEX
  VSB - VISIBILITY
$$




USA.gov is the U.S. government's official web portal to all federal, state and local government web resources and services.